PDT,Max TemperatureF,Mean TemperatureF,Min TemperatureF,Max Dew PointF,MeanDew PointF,Min DewpointF,Max Humidity, Mean Humidity, Min Humidity, Max Sea Level PressureIn, Mean Sea Level PressureIn, Min Sea Level PressureIn, Max VisibilityMiles, Mean VisibilityMiles, Min VisibilityMiles, Max Wind SpeedMPH, Mean Wind SpeedMPH, Max Gust SpeedMPH,PrecipitationIn, CloudCover, Events, WindDirDegrees
2013-10-1,55,45,34,38,33,28,92,68,38,30.15,30.08,30.01,10,10,10,24,7,28,0.00,4,,286
2013-10-2,55,42,29,33,30,23,89,66,32,30.11,30.07,29.99,10,10,10,24,8,30,0.00,2,,309
2013-10-3,56,42,27,32,27,23,92,61,27,30.35,30.23,30.11,10,10,10,16,6,22,0.00,1,,20
2013-10-4,62,45,28,30,26,20,78,53,19,30.45,30.38,30.32,10,10,10,15,5,24,0.00,0,,61
2013-10-5,71,48,25,34,28,23,85,55,18,30.43,30.34,30.25,10,10,10,8,2,9,0.00,0,,45
2013-10-6,73,51,28,36,30,26,92,59,19,30.24,30.15,30.04,10,10,10,13,2,15,0.00,0,,265
2013-10-7,62,46,30,34,31,23,89,65,25,30.10,30.06,30.02,10,10,10,23,7,31,0.00,1,,306
2013-10-8,57,40,22,35,29,19,100,74,35,30.14,30.03,29.87,10,10,7,30,6,37,0.00,3,Fog,334
2013-10-9,53,44,34,31,28,25,76,60,38,29.94,29.88,29.83,10,10,10,24,11,30,0.00,2,,22
2013-10-10,61,46,30,35,31,25,96,67,29,30.04,29.94,29.88,10,10,7,18,4,23,0.00,1,,281
2013-10-11,57,40,22,36,28,21,100,82,43,30.14,30.09,30.03,10,5,0,15,2,17,0.00,1,Fog-Rain,227
2013-10-12,54,38,21,39,31,21,96,75,46,30.07,30.03,29.95,10,10,9,22,3,29,0.01,4,Rain,334
2013-10-13,55,43,30,31,29,27,82,63,38,30.27,30.16,30.07,10,10,10,14,6,24,0.00,2,,6
2013-10-14,59,42,24,31,27,23,85,57,30,30.35,30.28,30.23,10,10,10,13,4,17,0.00,0,,20
2013-10-15,62,45,27,30,26,24,85,57,25,30.34,30.25,30.17,10,10,9,14,3,17,0.00,0,,59
2013-10-16,67,46,24,31,24,21,88,56,20,30.24,30.17,30.11,10,10,9,14,2,17,0.00,1,,175
2013-10-17,66,45,24,35,29,21,92,58,28,30.23,30.18,30.13,10,10,10,12,2,17,0.00,0,,334
2013-10-18,68,47,25,34,29,24,92,60,20,30.27,30.20,30.13,10,10,10,10,2,15,0.00,0,,7
2013-10-19,72,47,22,35,28,20,92,60,17,30.27,30.19,30.12,10,10,10,6,1,8,0.00,0,,71
2013-10-20,70,47,24,36,28,23,92,56,17,30.22,30.14,30.08,10,10,10,12,3,25,0.00,0,,330
2013-10-21,72,49,26,35,32,25,85,55,22,30.20,30.11,30.04,10,10,10,12,3,13,0.00,0,,341
2013-10-22,72,50,27,36,31,26,92,60,22,30.19,30.11,30.04,10,10,7,8,2,,0.00,0,,323
2013-10-23,72,49,25,36,28,23,92,59,18,30.14,30.07,30.00,10,10,2,8,1,10,0.00,0,,336
2013-10-24,72,48,24,35,28,21,92,58,17,30.14,30.08,30.02,10,10,10,7,1,9,0.00,0,,44
2013-10-25,70,47,24,34,26,16,85,58,12,30.28,30.23,30.14,10,10,8,6,1,8,0.00,0,,51
2013-10-26,71,47,23,33,25,20,88,56,16,30.35,30.24,30.12,10,10,10,6,1,7,0.00,0,,114
2013-10-27,60,42,23,35,27,18,81,65,21,30.10,29.86,29.63,10,10,10,32,10,39,T,3,Rain,319
2013-10-28,40,37,33,35,30,25,85,73,59,29.87,29.69,29.60,10,10,10,23,14,30,T,8,Rain,338
2013-10-29,49,35,20,27,23,18,88,69,39,30.09,29.99,29.89,10,10,7,9,2,10,0.00,1,,189
2013-10-30,56,38,19,33,27,17,96,75,41,30.23,30.15,30.06,10,9,4,13,2,15,0.00,2,,202
2013-10-31,62,42,21,37,30,20,100,73,39,30.33,30.26,30.22,10,10,8,12,2,14,0.00,1,Fog,2